Weather History for 17060 - October, 2012

Change the Weather History Date:

Thursday, October 4, 2012

  Actual Average Record
Temperature  
Mean Temperature 74 °F -  
Max Temperature 80 °F 65 °F - ()
Min Temperature 68 °F 54 °F - ()
Cooling Degree Days 9    
Growing Degree Days 24 (Base 50)    
Moisture  
Dew Point 62 °F    
Average Humidity 70    
Maximum Humidity 100    
Minimum Humidity 43    
Precipitation  
Precipitation 0.00 in - - ()
Sea Level Pressure  
Sea Level Pressure 29.94 in    
Wind  
Wind Speed 8 mph ()    
Max Wind Speed 14 mph    
Max Gust Speed -    
Visibility 6.2 miles    
Events      
T = Trace of Precipitation, MM = Missing Value Source: Averaged Metar Reports

Daily Weather History Graph

Daily Weather History Graph

Search for Another Location

Airport or City:

Trip Planner

Search our weather history database for the weather conditions in past years. The results will help you decide how hot, cold, wet, or windy it might be!

Date:

Astronomy

Oct. 04, 2012 Rise Set
Actual Time 7:04 AM EEST 6:41 PM EEST
Civil Twilight 6:37 AM EEST 7:08 PM EEST
Nautical Twilight 6:05 AM EEST 7:40 PM EEST
Astronomical Twilight 5:33 AM EEST 8:12 PM EEST
Moon 9:00 PM EEST (10/4) 11:06 AM EEST (10/4)
Length of Visible Light 12h 31m
Length of Day
11h 36m
Waning Gibbous, 84% of the Moon is Illuminated
Oct 4
Waning Gibbous
Oct 8
Last Quarter
Oct 15
New
Oct 22
First Quarter
Oct 29
Full

Hourly Weather History & Observations

Time (EEST) Temp. Heat Index Dew Point Humidity Pressure Visibility Wind Dir Wind Speed Gust Speed Precip Events Conditions
12:20 AM 69.8 °F - 69.8 °F 100% 29.92 in - NNW 8.1 mph - N/A   Clear
12:50 AM 69.8 °F - 69.8 °F 100% 29.92 in - North 11.5 mph - N/A   Clear
1:20 AM 69.8 °F - 68.0 °F 94% 29.92 in - North 9.2 mph - N/A   Clear
1:50 AM 69.8 °F - 68.0 °F 94% 29.92 in - North 9.2 mph - N/A   Clear
2:20 AM 69.8 °F - 68.0 °F 94% 29.92 in - North 10.4 mph - N/A   Clear
2:50 AM 69.8 °F - 68.0 °F 94% 29.92 in - North 9.2 mph - N/A   Clear
3:00 AM 69 °F - 67 °F 92% 29.94 in 6 mi North 9.2 mph - -   Partly Cloudy
3:20 AM 68.0 °F - 68.0 °F 100% 29.92 in - North 9.2 mph - N/A   Clear
3:50 AM 68.0 °F - 68.0 °F 100% 29.92 in - North 9.2 mph - N/A   Clear
4:20 AM 69.8 °F - 66.2 °F 88% 29.92 in - North 8.1 mph - N/A   Clear
4:50 AM 69.8 °F - 62.6 °F 78% 29.95 in - North 6.9 mph - N/A   Clear
5:20 AM 69.8 °F - 66.2 °F 88% 29.95 in 6.2 mi NNE 6.9 mph - N/A   Mostly Cloudy
5:50 AM 69.8 °F - 64.4 °F 83% 29.95 in 6.2 mi NNE 6.9 mph - N/A   Mostly Cloudy
6:20 AM 69.8 °F - 64.4 °F 83% 29.95 in 6.2 mi NNE 6.9 mph - N/A   Mostly Cloudy
6:50 AM 69.8 °F - 64.4 °F 83% 29.95 in 6.2 mi NE 4.6 mph - N/A   Mostly Cloudy
7:20 AM 69.8 °F - 64.4 °F 83% 29.95 in 6.2 mi NE 3.5 mph - N/A   Scattered Clouds
7:50 AM 69.8 °F - 66.2 °F 88% 29.95 in 6.2 mi NNE 3.5 mph - N/A   Scattered Clouds
8:20 AM 69.8 °F - 66.2 °F 88% 29.95 in 6.2 mi ESE 4.6 mph - N/A   Partly Cloudy
8:50 AM 71.6 °F - 62.6 °F 73% 29.95 in 6.2 mi Variable 3.5 mph - N/A   Scattered Clouds
9:00 AM 72 °F - 63 °F 67% 29.96 in 6 mi East 3.5 mph - -   Partly Cloudy
9:20 AM 73.4 °F - 62.6 °F 69% 29.95 in 6.2 mi Variable 5.8 mph - N/A   Scattered Clouds
9:50 AM 75.2 °F - 60.8 °F 61% 29.98 in 6.2 mi NNE 8.1 mph - N/A   Scattered Clouds
10:20 AM 75.2 °F - 59.0 °F 57% 29.98 in 6.2 mi North 8.1 mph - N/A   Scattered Clouds
10:50 AM 75.2 °F - 60.8 °F 61% 29.98 in 6.2 mi NNE 6.9 mph - N/A   Scattered Clouds
11:20 AM 75.2 °F - 57.2 °F 53% 29.98 in 6.2 mi NNE 9.2 mph - N/A   Scattered Clouds
11:50 AM 75.2 °F - 57.2 °F 53% 29.98 in 6.2 mi NNE 8.1 mph - N/A   Scattered Clouds
12:20 PM 77.0 °F - 57.2 °F 50% 29.98 in 6.2 mi North 8.1 mph - N/A   Scattered Clouds
12:50 PM 77.0 °F - 57.2 °F 50% 29.95 in 6.2 mi NNE 6.9 mph - N/A   Scattered Clouds
1:20 PM 80.6 °F 80.8 °F 57.2 °F 45% 29.95 in 6.2 mi Variable 4.6 mph - N/A   Scattered Clouds
1:50 PM 77.0 °F - 59.0 °F 54% 29.95 in 6.2 mi North 13.8 mph - N/A   Scattered Clouds
2:20 PM 77.0 °F - 60.8 °F 57% 29.92 in 6.2 mi North 11.5 mph - N/A   Scattered Clouds
2:50 PM 77.0 °F - 59.0 °F 54% 29.92 in 6.2 mi North 11.5 mph - N/A   Scattered Clouds
3:00 PM 77 °F - 59 °F 43% 29.93 in 6 mi North 11.5 mph - -   Partly Cloudy
3:20 PM 77.0 °F - 59.0 °F 54% 29.92 in 6.2 mi North 13.8 mph - N/A   Scattered Clouds
3:50 PM 77.0 °F - 57.2 °F 50% 29.92 in 6.2 mi North 11.5 mph - N/A   Scattered Clouds
4:20 PM 77.0 °F - 57.2 °F 50% 29.92 in 6.2 mi North 12.7 mph - N/A   Scattered Clouds
4:50 PM 75.2 °F - 59.0 °F 57% 29.92 in 6.2 mi North 12.7 mph - N/A   Partly Cloudy
5:20 PM 75.2 °F - 57.2 °F 53% 29.92 in 6.2 mi North 9.2 mph - N/A   Partly Cloudy
5:50 PM 73.4 °F - 57.2 °F 57% 29.92 in 6.2 mi NNE 9.2 mph - N/A   Partly Cloudy
6:20 PM 73.4 °F - 57.2 °F 57% 29.95 in 6.2 mi NNE 9.2 mph - N/A   Scattered Clouds
6:50 PM 71.6 °F - 59.0 °F 64% 29.95 in 6.2 mi North 9.2 mph - N/A   Scattered Clouds
7:20 PM 71.6 °F - 59.0 °F 64% 29.95 in 6.2 mi NNE 8.1 mph - N/A   Scattered Clouds
7:50 PM 71.6 °F - 59.0 °F 64% 29.95 in 6.2 mi NNE 9.2 mph - N/A   Scattered Clouds
8:20 PM 71.6 °F - 59.0 °F 64% 29.95 in 6.2 mi Variable 8.1 mph - N/A   Partly Cloudy
8:50 PM 71.6 °F - 59.0 °F 64% 29.95 in 6.2 mi NE 6.9 mph - N/A   Partly Cloudy
9:00 PM 71 °F - 58 °F 56% 29.96 in 6 mi NE 6.9 mph - -   Scattered Clouds
9:20 PM 71.6 °F - 59.0 °F 64% 29.95 in 6.2 mi NE 6.9 mph - N/A   Partly Cloudy
9:50 PM 69.8 °F - 59.0 °F 68% 29.95 in 6.2 mi NE 3.5 mph - N/A   Scattered Clouds
10:20 PM 69.8 °F - 59.0 °F 68% 29.95 in 6.2 mi Variable 3.5 mph - N/A   Partly Cloudy
10:50 PM 68.0 °F - 59.0 °F 73% 29.95 in 6.2 mi WNW 3.5 mph - N/A   Partly Cloudy
11:20 PM 68.0 °F - 59.0 °F 73% 29.95 in 6.2 mi North 6.9 mph - N/A   Partly Cloudy
11:50 PM 68.0 °F - 59.0 °F 73% 29.95 in 6.2 mi North 4.6 mph - N/A   Partly Cloudy